Time,TemperatureF,DewpointF,PressureIn,WindDirection,WindDirectionDegrees,WindSpeedMPH,WindSpeedGustMPH,Humidity,HourlyPrecipIn,Conditions,Clouds,dailyrainin,SolarRadiationWatts/m^2,SoftwareType,DateUTC
2013-03-25 00:10:00,24.4,20.3,23.17,WSW,240,0.0,0.0,84,0.00,,,0.00,0,Wunderground v.1.15,2013-03-25 04:10:00,
2013-03-25 00:20:00,24.4,20.3,23.17,WSW,240,0.0,0.0,84,0.00,,,0.00,0,Wunderground v.1.15,2013-03-25 04:20:00,
2013-03-25 00:40:00,23.8,19.7,23.17,WSW,240,0.0,0.0,84,0.00,,,0.00,0,Wunderground v.1.15,2013-03-25 04:40:00,
2013-03-25 00:50:00,23.5,19.7,23.17,WSW,240,0.0,0.0,85,0.00,,,0.00,0,Wunderground v.1.15,2013-03-25 04:50:00,
2013-03-25 01:10:00,22.9,19.1,23.17,WSW,240,0.0,0.0,85,0.00,,,0.00,0,Wunderground v.1.15,2013-03-25 05:10:00,
2013-03-25 01:20:00,22.4,18.6,23.17,WSW,240,0.0,0.0,85,0.00,,,0.00,0,Wunderground v.1.15,2013-03-25 05:20:00,
2013-03-25 01:40:00,21.2,17.4,23.17,WSW,240,0.0,0.0,85,0.00,,,0.00,0,Wunderground v.1.15,2013-03-25 05:40:00,
2013-03-25 01:50:00,21.0,17.5,23.17,WSW,240,0.0,0.0,86,0.00,,,0.00,0,Wunderground v.1.15,2013-03-25 05:50:00,
2013-03-25 02:01:00,22.1,18.8,23.17,WSW,240,0.0,0.0,87,0.00,,,0.00,0,Wunderground v.1.15,2013-03-25 06:01:00,
2013-03-25 02:10:00,23.5,20.5,23.17,WSW,240,0.0,0.0,88,0.00,,,0.00,0,Wunderground v.1.15,2013-03-25 06:10:00,
2013-03-25 02:20:00,24.1,20.8,23.17,WSW,240,0.0,0.0,87,0.00,,,0.00,0,Wunderground v.1.15,2013-03-25 06:20:00,
2013-03-25 02:40:00,25.7,22.4,23.17,WSW,240,0.0,0.0,87,0.00,,,0.00,0,Wunderground v.1.15,2013-03-25 06:40:00,
2013-03-25 02:50:00,26.0,22.4,23.17,WSW,240,0.0,0.0,86,0.00,,,0.00,0,Wunderground v.1.15,2013-03-25 06:50:00,
2013-03-25 03:10:00,26.2,22.0,23.17,WSW,240,0.0,0.0,84,0.00,,,0.00,0,Wunderground v.1.15,2013-03-25 07:10:00,
2013-03-25 03:20:00,26.3,22.1,23.17,WSW,240,0.0,0.0,84,0.00,,,0.00,0,Wunderground v.1.15,2013-03-25 07:20:00,
2013-03-25 03:40:00,26.3,21.8,23.17,WSW,240,0.0,0.0,83,0.00,,,0.00,0,Wunderground v.1.15,2013-03-25 07:40:00,
2013-03-25 03:50:00,26.0,21.5,23.17,WSW,240,0.0,0.0,83,0.00,,,0.00,0,Wunderground v.1.15,2013-03-25 07:50:00,
2013-03-25 04:10:00,26.0,21.5,23.17,WSW,240,0.0,0.0,83,0.00,,,0.00,0,Wunderground v.1.15,2013-03-25 08:10:00,
2013-03-25 04:20:00,26.2,22.0,23.17,WSW,240,0.0,0.0,84,0.00,,,0.00,0,Wunderground v.1.15,2013-03-25 08:20:00,
2013-03-25 04:40:00,27.4,22.9,23.16,WSW,240,0.0,0.0,83,0.00,,,0.00,0,Wunderground v.1.15,2013-03-25 08:40:00,
2013-03-25 04:50:00,27.7,23.5,23.17,WSW,240,0.0,0.0,84,0.00,,,0.00,0,Wunderground v.1.15,2013-03-25 08:50:00,
2013-03-25 05:10:00,27.5,23.0,23.16,WSW,240,0.0,0.0,83,0.00,,,0.00,0,Wunderground v.1.15,2013-03-25 09:10:00,
2013-03-25 05:20:00,27.1,22.9,23.16,WSW,240,0.0,0.0,84,0.00,,,0.00,0,Wunderground v.1.15,2013-03-25 09:20:00,
2013-03-25 05:40:00,27.4,23.2,23.16,WSW,238,0.0,0.0,84,0.00,,,0.00,0,Wunderground v.1.15,2013-03-25 09:40:00,
2013-03-25 05:50:00,28.0,24.1,23.16,WSW,237,0.0,0.0,85,0.00,,,0.00,0,Wunderground v.1.15,2013-03-25 09:50:00,
2013-03-25 06:10:00,28.3,24.4,23.16,WSW,238,0.0,0.0,85,0.00,,,0.00,0,Wunderground v.1.15,2013-03-25 10:10:00,
2013-03-25 06:20:00,28.6,24.7,23.16,WSW,238,0.0,0.0,85,0.00,,,0.00,0,Wunderground v.1.15,2013-03-25 10:20:00,
2013-03-25 06:40:00,29.9,25.7,23.16,East,81,0.0,0.0,84,0.00,,,0.00,0,Wunderground v.1.15,2013-03-25 10:40:00,
2013-03-25 06:50:00,30.3,26.0,23.16,ENE,65,0.0,0.0,84,0.00,,,0.00,0,Wunderground v.1.15,2013-03-25 10:50:00,
2013-03-25 07:10:00,31.2,26.6,23.16,ENE,68,0.0,0.0,83,0.00,,,0.00,16,Wunderground v.1.15,2013-03-25 11:10:00,
2013-03-25 07:20:00,31.5,26.9,23.16,ENE,63,0.0,0.0,83,0.00,,,0.00,21,Wunderground v.1.15,2013-03-25 11:20:00,
2013-03-25 07:40:00,32.0,27.1,23.16,ENE,65,0.0,0.0,82,0.00,,,0.00,32,Wunderground v.1.15,2013-03-25 11:40:00,
2013-03-25 07:50:00,32.1,27.2,23.16,ENE,69,0.0,0.0,82,0.00,,,0.00,40,Wunderground v.1.15,2013-03-25 11:50:00,
2013-03-25 08:10:00,32.6,27.4,23.16,ENE,63,0.0,0.0,81,0.00,,,0.00,74,Wunderground v.1.15,2013-03-25 12:10:00,
2013-03-25 08:20:00,32.8,27.3,23.16,ENE,59,0.0,0.0,80,0.00,,,0.00,95,Wunderground v.1.15,2013-03-25 12:20:00,
2013-03-25 08:40:00,33.4,27.6,23.16,ENE,67,0.0,0.0,79,0.00,,,0.00,146,Wunderground v.1.15,2013-03-25 12:40:00,
2013-03-25 08:50:00,33.7,27.6,23.16,ENE,67,0.0,0.0,78,0.00,,,0.00,162,Wunderground v.1.15,2013-03-25 12:50:00,
2013-03-25 09:10:00,34.5,28.0,23.16,NE,54,0.0,0.0,77,0.00,,,0.00,218,Wunderground v.1.15,2013-03-25 13:10:00,
2013-03-25 09:20:00,35.2,28.7,23.16,ENE,62,0.0,0.0,77,0.00,,,0.00,279,Wunderground v.1.15,2013-03-25 13:20:00,
2013-03-25 09:40:00,35.9,28.4,23.16,ENE,67,0.0,0.0,74,0.00,,,0.00,274,Wunderground v.1.15,2013-03-25 13:40:00,
2013-03-25 09:50:00,36.1,28.3,23.16,ENE,69,0.0,0.0,73,0.00,,,0.00,267,Wunderground v.1.15,2013-03-25 13:50:00,
2013-03-25 10:01:00,36.5,28.7,23.16,ENE,66,0.0,0.0,73,0.00,,,0.00,320,Wunderground v.1.15,2013-03-25 14:01:00,
2013-03-25 10:10:00,36.5,28.3,23.16,ENE,70,0.0,0.0,72,0.00,,,0.00,325,Wunderground v.1.15,2013-03-25 14:10:00,
2013-03-25 10:20:00,37.1,28.9,23.16,East,79,0.0,0.0,72,0.00,,,0.00,381,Wunderground v.1.15,2013-03-25 14:20:00,
2013-03-25 10:31:00,37.5,28.6,23.16,ENE,63,0.0,0.0,70,0.00,,,0.00,385,Wunderground v.1.15,2013-03-25 14:31:00,
2013-03-25 10:40:00,37.2,29.0,23.16,NE,53,0.0,0.0,72,0.00,,,0.00,369,Wunderground v.1.15,2013-03-25 14:40:00,
2013-03-25 10:50:00,37.2,29.0,23.16,NE,35,1.0,3.0,72,0.00,,,0.00,468,Wunderground v.1.15,2013-03-25 14:50:00,
2013-03-25 11:10:00,37.7,28.8,23.16,NNE,28,3.0,3.0,70,0.00,,,0.00,396,Wunderground v.1.15,2013-03-25 15:10:00,
2013-03-25 11:20:00,37.8,28.5,23.15,ENE,75,5.0,6.0,69,0.00,,,0.00,740,Wunderground v.1.15,2013-03-25 15:20:00,
2013-03-25 11:40:00,38.7,29.0,23.15,NE,35,3.0,5.0,68,0.00,,,0.00,649,Wunderground v.1.15,2013-03-25 15:40:00,
2013-03-25 11:50:00,37.9,28.3,23.15,North,351,5.0,6.0,68,0.00,,,0.00,258,Wunderground v.1.15,2013-03-25 15:50:00,
2013-03-25 12:10:00,39.4,29.0,23.15,NNE,33,4.0,4.0,66,0.00,,,0.00,891,Wunderground v.1.15,2013-03-25 16:10:00,
2013-03-25 12:20:00,40.0,27.6,23.15,ENE,60,5.0,7.0,61,0.00,,,0.00,793,Wunderground v.1.15,2013-03-25 16:20:00,
2013-03-25 12:40:00,41.8,28.1,23.15,ESE,103,4.0,4.0,58,0.00,,,0.00,824,Wunderground v.1.15,2013-03-25 16:40:00,
2013-03-25 12:50:00,41.7,27.1,23.15,North,360,4.0,7.0,56,0.00,,,0.00,784,Wunderground v.1.15,2013-03-25 16:50:00,
2013-03-25 13:10:00,42.0,27.0,23.15,East,92,5.0,5.0,55,0.00,,,0.00,789,Wunderground v.1.15,2013-03-25 17:10:00,
2013-03-25 13:20:00,42.0,27.0,23.15,ENE,57,4.0,9.0,55,0.00,,,0.00,789,Wunderground v.1.15,2013-03-25 17:20:00,
2013-03-25 13:40:00,41.4,26.0,23.14,East,86,6.0,6.0,54,0.00,,,0.00,796,Wunderground v.1.15,2013-03-25 17:40:00,
2013-03-25 13:50:00,42.1,26.2,23.14,NE,49,5.0,5.0,53,0.00,,,0.00,784,Wunderground v.1.15,2013-03-25 17:50:00,
2013-03-25 14:10:00,42.0,25.6,23.14,ENE,69,6.0,6.0,52,0.00,,,0.00,759,Wunderground v.1.15,2013-03-25 18:10:00,
2013-03-25 14:20:00,42.2,24.9,23.14,East,83,5.0,5.0,50,0.00,,,0.00,747,Wunderground v.1.15,2013-03-25 18:20:00,
2013-03-25 14:40:00,43.1,24.7,23.14,ENE,75,4.0,4.0,48,0.00,,,0.00,715,Wunderground v.1.15,2013-03-25 18:40:00,
2013-03-25 14:50:00,42.8,24.9,23.14,ENE,70,5.0,8.0,49,0.00,,,0.00,691,Wunderground v.1.15,2013-03-25 18:50:00,
2013-03-25 15:10:00,43.7,24.8,23.14,ENE,76,4.0,4.0,47,0.00,,,0.00,668,Wunderground v.1.15,2013-03-25 19:10:00,
2013-03-25 15:20:00,43.1,25.2,23.14,ESE,111,4.0,4.0,49,0.00,,,0.00,647,Wunderground v.1.15,2013-03-25 19:20:00,
2013-03-25 15:40:00,43.1,24.7,23.14,ENE,57,4.0,4.0,48,0.00,,,0.00,605,Wunderground v.1.15,2013-03-25 19:40:00,
2013-03-25 15:50:00,43.2,25.3,23.13,East,82,4.0,4.0,49,0.00,,,0.00,580,Wunderground v.1.15,2013-03-25 19:50:00,
2013-03-25 16:10:00,43.5,24.1,23.13,East,96,4.0,4.0,46,0.00,,,0.00,534,Wunderground v.1.15,2013-03-25 20:10:00,
2013-03-25 16:20:00,43.5,24.1,23.13,SSE,161,4.0,5.0,46,0.00,,,0.00,513,Wunderground v.1.15,2013-03-25 20:20:00,
2013-03-25 16:40:00,43.7,24.8,23.13,East,85,3.0,4.0,47,0.00,,,0.00,454,Wunderground v.1.15,2013-03-25 20:40:00,
2013-03-25 16:50:00,43.7,24.8,23.13,SSE,150,3.0,4.0,47,0.00,,,0.00,422,Wunderground v.1.15,2013-03-25 20:50:00,
2013-03-25 17:01:00,43.7,24.2,23.13,ENE,73,3.0,3.0,46,0.00,,,0.00,394,Wunderground v.1.15,2013-03-25 21:01:00,
2013-03-25 17:10:00,43.7,24.8,23.13,ENE,62,3.0,3.0,47,0.00,,,0.00,355,Wunderground v.1.15,2013-03-25 21:10:00,
2013-03-25 17:20:00,43.7,24.2,23.13,ENE,67,3.0,4.0,46,0.00,,,0.00,44,Wunderground v.1.15,2013-03-25 21:20:00,
2013-03-25 17:40:00,43.7,24.2,23.13,ESE,114,2.0,2.0,46,0.00,,,0.00,269,Wunderground v.1.15,2013-03-25 21:40:00,
2013-03-25 17:50:00,43.7,24.2,23.13,East,87,1.0,2.0,46,0.00,,,0.00,241,Wunderground v.1.15,2013-03-25 21:50:00,
2013-03-25 18:10:00,43.4,24.0,23.13,ESE,105,2.0,4.0,46,0.00,,,0.00,176,Wunderground v.1.15,2013-03-25 22:10:00,
2013-03-25 18:20:00,43.1,24.2,23.13,East,79,3.0,3.0,47,0.00,,,0.00,158,Wunderground v.1.15,2013-03-25 22:20:00,
2013-03-25 18:40:00,41.5,25.2,23.13,ENE,67,2.0,2.0,52,0.00,,,0.00,77,Wunderground v.1.15,2013-03-25 22:40:00,
2013-03-25 18:50:00,39.8,25.4,23.13,ENE,61,0.0,0.0,56,0.00,,,0.00,19,Wunderground v.1.15,2013-03-25 22:50:00,
2013-03-25 19:10:00,37.8,25.5,23.13,ENE,61,0.0,0.0,61,0.00,,,0.00,5,Wunderground v.1.15,2013-03-25 23:10:00,
2013-03-25 19:20:00,37.1,25.3,23.14,ENE,60,0.0,0.0,62,0.00,,,0.00,0,Wunderground v.1.15,2013-03-25 23:20:00,
2013-03-25 19:31:00,36.8,25.8,23.14,NE,48,3.0,3.0,64,0.00,,,0.00,0,Wunderground v.1.15,2013-03-25 23:31:00,
2013-03-25 19:40:00,36.8,26.1,23.14,ENE,77,4.0,5.0,65,0.00,,,0.00,0,Wunderground v.1.15,2013-03-25 23:40:00,
2013-03-25 19:50:00,37.2,26.5,23.14,ENE,75,2.0,2.0,65,0.00,,,0.00,0,Wunderground v.1.15,2013-03-25 23:50:00,
2013-03-25 20:10:00,37.1,26.0,23.14,ENE,77,4.0,6.0,64,0.00,,,0.00,0,Wunderground v.1.15,2013-03-26 00:10:00,
2013-03-25 20:20:00,36.7,24.9,23.14,ENE,68,6.0,6.0,62,0.00,,,0.00,0,Wunderground v.1.15,2013-03-26 00:20:00,
2013-03-25 20:40:00,36.1,23.9,23.15,ENE,74,5.0,5.0,61,0.00,,,0.00,0,Wunderground v.1.15,2013-03-26 00:40:00,
2013-03-25 20:50:00,35.8,24.0,23.15,ENE,69,5.0,5.0,62,0.00,,,0.00,0,Wunderground v.1.15,2013-03-26 00:50:00,
2013-03-25 21:01:00,35.4,23.7,23.15,ENE,72,6.0,10.0,62,0.00,,,0.00,0,Wunderground v.1.15,2013-03-26 01:01:00,
2013-03-25 21:10:00,35.1,23.8,23.15,ENE,76,7.0,10.0,63,0.00,,,0.00,0,Wunderground v.1.15,2013-03-26 01:10:00,
2013-03-25 21:20:00,34.8,23.9,23.15,ENE,69,7.0,7.0,64,0.00,,,0.00,0,Wunderground v.1.15,2013-03-26 01:20:00,
2013-03-25 21:40:00,34.5,23.6,23.15,ENE,62,6.0,6.0,64,0.00,,,0.00,0,Wunderground v.1.15,2013-03-26 01:40:00,
2013-03-25 21:50:00,34.3,24.1,23.15,ENE,74,6.0,6.0,66,0.00,,,0.00,0,Wunderground v.1.15,2013-03-26 01:50:00,
2013-03-25 22:01:00,33.9,24.1,23.15,NNE,21,4.0,4.0,67,0.00,,,0.00,0,Wunderground v.1.15,2013-03-26 02:01:00,
2013-03-25 22:10:00,33.4,24.3,23.15,NNE,28,3.0,3.0,69,0.00,,,0.00,0,Wunderground v.1.15,2013-03-26 02:10:00,
2013-03-25 22:20:00,33.0,25.0,23.15,NE,40,3.0,3.0,72,0.00,,,0.00,0,Wunderground v.1.15,2013-03-26 02:20:00,
2013-03-25 22:40:00,32.8,24.8,23.15,ENE,63,3.0,6.0,72,0.00,,,0.00,0,Wunderground v.1.15,2013-03-26 02:40:00,
2013-03-25 22:50:00,33.0,24.6,23.15,ENE,72,3.0,4.0,71,0.00,,,0.00,0,Wunderground v.1.15,2013-03-26 02:50:00,
2013-03-25 23:10:00,32.4,25.0,23.15,NE,55,2.0,4.0,74,0.00,,,0.00,0,Wunderground v.1.15,2013-03-26 03:10:00,
2013-03-25 23:20:00,32.4,24.7,23.15,NE,54,2.0,2.0,73,0.00,,,0.00,0,Wunderground v.1.15,2013-03-26 03:20:00,
2013-03-25 23:40:00,32.6,24.6,23.15,NE,56,3.0,4.0,72,0.00,,,0.00,0,Wunderground v.1.15,2013-03-26 03:40:00,
2013-03-25 23:50:00,32.6,24.6,23.15,ENE,59,3.0,4.0,72,0.00,,,0.00,0,Wunderground v.1.15,2013-03-26 03:50:00,